HBFVA EDFM-EDDG

Flight info

Callsign HBFVA
Flight time 0h 54m
Altitude 26000
Route OLIVI4W OLIVI Q762 ABSIX DCT DOMEG DOMEG2J
Aircraft PC12/L-SDFGRWY/S

Departure

Time 2026-04-27 17:07
Airport Mannheim-City Airport (EDFM)

Arrival

Time 2026-04-27 18:01
Airport Münster Osnabrück Airport (EDDG)
Time Latitude Longitude Altitude Speed Heading
2026-04-27 16:57 49.47561 8.52084 314 ft 0 kts 184°
2026-04-27 17:01 49.47562 8.52084 314 ft 0 kts 184°
2026-04-27 17:02 49.47561 8.52084 314 ft 0 kts 184°
2026-04-27 17:02 49.47542 8.52088 314 ft 5 kts 130°
2026-04-27 17:02 49.47539 8.52148 314 ft 6 kts 96°
2026-04-27 17:03 49.47507 8.52170 314 ft 7 kts 182°
2026-04-27 17:03 49.47445 8.52165 315 ft 10 kts 183°
2026-04-27 17:03 49.47370 8.52158 315 ft 12 kts 183°
2026-04-27 17:03 49.47335 8.52155 314 ft 0 kts 183°
2026-04-27 17:04 49.47327 8.52154 314 ft 3 kts 183°
2026-04-27 17:05 49.47282 8.52150 312 ft 10 kts 181°
2026-04-27 17:05 49.47248 8.52127 311 ft 4 kts 300°
2026-04-27 17:05 49.47248 8.52121 311 ft 0 kts 271°
2026-04-27 17:06 49.47253 8.51938 312 ft 44 kts 272°
2026-04-27 17:06 49.47278 8.51171 330 ft 94 kts 275°
2026-04-27 17:06 49.47326 8.50098 617 ft 109 kts 279°
2026-04-27 17:07 49.47379 8.48819 910 ft 126 kts 273°
2026-04-27 17:07 49.47168 8.47471 1349 ft 130 kts 261°
2026-04-27 17:07 49.46947 8.46128 1961 ft 128 kts 261°
2026-04-27 17:07 49.46728 8.44764 2499 ft 137 kts 261°
2026-04-27 17:08 49.46493 8.43276 3035 ft 148 kts 259°
2026-04-27 17:08 49.46239 8.41683 3567 ft 158 kts 259°
2026-04-27 17:08 49.45975 8.40029 4187 ft 160 kts 260°
2026-04-27 17:08 49.45711 8.38376 4786 ft 159 kts 260°
2026-04-27 17:09 49.45447 8.36725 5429 ft 159 kts 260°
2026-04-27 17:09 49.45195 8.35066 6091 ft 160 kts 264°
2026-04-27 17:09 49.45291 8.33402 6698 ft 157 kts 291°
2026-04-27 17:09 49.45869 8.32023 7268 ft 154 kts 317°
2026-04-27 17:10 49.46787 8.31168 7777 ft 156 kts 335°
2026-04-27 17:10 49.47784 8.30484 8294 ft 157 kts 334°
2026-04-27 17:10 49.48783 8.29776 8837 ft 159 kts 334°
2026-04-27 17:10 49.49792 8.29055 9383 ft 161 kts 334°
2026-04-27 17:11 49.50810 8.28325 9946 ft 162 kts 333°
2026-04-27 17:11 49.52875 8.26842 10962 ft 165 kts 334°
2026-04-27 17:11 49.53906 8.26102 11488 ft 166 kts 333°
2026-04-27 17:12 49.56015 8.24584 12574 ft 169 kts 333°
2026-04-27 17:12 49.57084 8.23814 13108 ft 170 kts 333°
2026-04-27 17:12 49.58139 8.22973 13632 ft 171 kts 322°
2026-04-27 17:13 49.58909 8.21601 14151 ft 171 kts 297°
2026-04-27 17:13 49.59422 8.19929 14610 ft 173 kts 296°
2026-04-27 17:13 49.59945 8.18249 15111 ft 174 kts 296°
2026-04-27 17:13 49.60476 8.16563 15569 ft 176 kts 296°
2026-04-27 17:14 49.61010 8.14861 16038 ft 177 kts 296°
2026-04-27 17:14 49.61548 8.13144 16520 ft 179 kts 296°
2026-04-27 17:14 49.62090 8.11413 17019 ft 180 kts 296°
2026-04-27 17:14 49.62637 8.09664 17521 ft 181 kts 296°
2026-04-27 17:15 49.63187 8.07904 18017 ft 183 kts 296°
2026-04-27 17:15 49.63742 8.06127 18501 ft 185 kts 296°
2026-04-27 17:15 49.64301 8.04337 18912 ft 186 kts 296°
2026-04-27 17:15 49.64861 8.02541 19324 ft 186 kts 296°
2026-04-27 17:16 49.65422 8.00741 19754 ft 186 kts 296°
2026-04-27 17:16 49.65984 7.98936 20153 ft 187 kts 296°
2026-04-27 17:16 49.66548 7.97121 20564 ft 188 kts 296°
2026-04-27 17:16 49.67115 7.95298 20982 ft 189 kts 296°
2026-04-27 17:17 49.67677 7.93491 21400 ft 190 kts 296°
2026-04-27 17:17 49.68254 7.91629 21794 ft 190 kts 296°
2026-04-27 17:17 49.68819 7.89809 22218 ft 191 kts 297°
2026-04-27 17:18 49.69968 7.86098 23055 ft 192 kts 297°
2026-04-27 17:18 49.70548 7.84226 23476 ft 193 kts 296°
2026-04-27 17:18 49.71127 7.82352 23876 ft 194 kts 297°
2026-04-27 17:18 49.71710 7.80466 24221 ft 195 kts 296°
2026-04-27 17:19 49.72292 7.78579 24579 ft 195 kts 297°
2026-04-27 17:19 49.72875 7.76686 24951 ft 196 kts 297°
2026-04-27 17:19 49.73462 7.74782 25298 ft 196 kts 297°
2026-04-27 17:19 49.73859 7.73493 25548 ft 196 kts 297°
2026-04-27 17:20 49.74446 7.71586 25933 ft 197 kts 297°
2026-04-27 17:20 49.75040 7.69658 26146 ft 203 kts 297°
2026-04-27 17:20 49.75651 7.67675 26150 ft 211 kts 297°
2026-04-27 17:20 49.76296 7.65577 26159 ft 221 kts 297°
2026-04-27 17:21 49.76970 7.63381 26165 ft 230 kts 297°
2026-04-27 17:21 49.77672 7.61114 26163 ft 236 kts 298°
2026-04-27 17:21 49.78628 7.59025 26163 ft 241 kts 309°
2026-04-27 17:21 49.79738 7.57057 26164 ft 245 kts 311°
2026-04-27 17:22 49.80863 7.55068 26167 ft 247 kts 310°
2026-04-27 17:22 49.81975 7.53050 26165 ft 245 kts 310°
2026-04-27 17:22 49.83075 7.51038 26164 ft 244 kts 310°
2026-04-27 17:22 49.84172 7.49040 26164 ft 243 kts 310°
2026-04-27 17:23 49.85264 7.47055 26163 ft 242 kts 310°
2026-04-27 17:23 49.86351 7.45074 26165 ft 241 kts 310°
2026-04-27 17:23 49.87434 7.43099 26167 ft 240 kts 309°
2026-04-27 17:23 49.88517 7.41122 26165 ft 240 kts 310°
2026-04-27 17:24 49.89596 7.39152 26166 ft 240 kts 309°
2026-04-27 17:24 49.90675 7.37179 26164 ft 240 kts 309°
2026-04-27 17:24 49.91785 7.35287 26160 ft 240 kts 316°
2026-04-27 17:24 49.93191 7.33884 26162 ft 243 kts 332°
2026-04-27 17:25 49.94832 7.33197 26161 ft 248 kts 349°
2026-04-27 17:25 49.96570 7.33258 26167 ft 252 kts
2026-04-27 17:25 49.98303 7.33656 26166 ft 254 kts
2026-04-27 17:25 50.00045 7.34043 26166 ft 252 kts
2026-04-27 17:26 50.01785 7.34284 26166 ft 251 kts 359°
2026-04-27 17:26 50.03526 7.34490 26164 ft 251 kts 359°
2026-04-27 17:26 50.05275 7.34728 26169 ft 255 kts 359°
2026-04-27 17:26 50.07015 7.34978 26167 ft 259 kts 360°
2026-04-27 17:27 50.08798 7.35231 26164 ft 262 kts 359°
2026-04-27 17:27 50.10625 7.35486 26165 ft 265 kts 360°
2026-04-27 17:27 50.12465 7.35744 26167 ft 266 kts 360°
2026-04-27 17:27 50.14309 7.36003 26169 ft 267 kts 360°
2026-04-27 17:28 50.16166 7.36265 26168 ft 267 kts 359°
2026-04-27 17:28 50.18015 7.36525 26166 ft 267 kts 359°
2026-04-27 17:28 50.21719 7.37046 26167 ft 266 kts 359°
2026-04-27 17:29 50.23565 7.37305 26169 ft 266 kts 359°
2026-04-27 17:29 50.25411 7.37565 26166 ft 267 kts 359°
2026-04-27 17:29 50.27260 7.37825 26167 ft 267 kts 359°
2026-04-27 17:29 50.29109 7.38086 26165 ft 267 kts 359°
2026-04-27 17:30 50.30963 7.38348 26167 ft 267 kts 359°
2026-04-27 17:30 50.34670 7.38872 26166 ft 268 kts 359°
2026-04-27 17:30 50.36529 7.39135 26169 ft 268 kts 359°
2026-04-27 17:31 50.38385 7.39398 26169 ft 268 kts 359°
2026-04-27 17:31 50.40241 7.39661 26169 ft 268 kts 359°
2026-04-27 17:31 50.42100 7.39924 26169 ft 268 kts 359°
2026-04-27 17:31 50.43958 7.40188 26171 ft 268 kts 359°
2026-04-27 17:32 50.45814 7.40452 26168 ft 268 kts 359°
2026-04-27 17:32 50.49532 7.40980 26168 ft 268 kts 359°
2026-04-27 17:32 50.51368 7.41241 26168 ft 269 kts 359°
2026-04-27 17:33 50.53228 7.41506 26167 ft 268 kts 359°
2026-04-27 17:33 50.55092 7.41772 26169 ft 269 kts 359°
2026-04-27 17:33 50.56959 7.42038 26168 ft 269 kts 359°
2026-04-27 17:33 50.58828 7.42305 26168 ft 270 kts 358°
2026-04-27 17:34 50.60697 7.42573 26169 ft 270 kts 358°
2026-04-27 17:34 50.62569 7.42840 26163 ft 270 kts 358°
2026-04-27 17:34 50.64442 7.43108 26165 ft 270 kts 358°
2026-04-27 17:34 50.66311 7.43376 26166 ft 270 kts 358°
2026-04-27 17:35 50.68182 7.43644 26168 ft 270 kts 358°
2026-04-27 17:35 50.70049 7.43912 26166 ft 270 kts 358°
2026-04-27 17:35 50.71918 7.44180 26167 ft 270 kts 358°
2026-04-27 17:35 50.73785 7.44449 26169 ft 270 kts 358°
2026-04-27 17:36 50.75654 7.44717 26169 ft 270 kts 358°
2026-04-27 17:36 50.77524 7.44986 26167 ft 270 kts 358°
2026-04-27 17:36 50.79401 7.45256 26169 ft 270 kts 358°
2026-04-27 17:36 50.81277 7.45527 26166 ft 271 kts 358°
2026-04-27 17:37 50.83151 7.45798 26168 ft 270 kts 358°
2026-04-27 17:37 50.85024 7.46068 26167 ft 270 kts 358°
2026-04-27 17:37 50.86872 7.46335 26170 ft 270 kts 358°
2026-04-27 17:37 50.88740 7.46605 26171 ft 270 kts 358°
2026-04-27 17:38 50.90610 7.46876 26171 ft 269 kts 358°
2026-04-27 17:38 50.92471 7.47146 26168 ft 269 kts 358°
2026-04-27 17:38 50.94334 7.47415 26172 ft 269 kts 358°
2026-04-27 17:38 50.96198 7.47685 26169 ft 269 kts 358°
2026-04-27 17:39 50.98061 7.47956 26173 ft 269 kts 358°
2026-04-27 17:39 50.99925 7.48227 26173 ft 269 kts 357°
2026-04-27 17:39 51.01767 7.48499 26166 ft 263 kts 357°
2026-04-27 17:39 51.03597 7.48765 25946 ft 266 kts 357°
2026-04-27 17:40 51.05451 7.49030 25702 ft 268 kts 358°
2026-04-27 17:40 51.07321 7.49301 25357 ft 271 kts 358°
2026-04-27 17:40 51.09195 7.49580 24989 ft 271 kts 358°
2026-04-27 17:40 51.11073 7.49856 24610 ft 270 kts 358°
2026-04-27 17:41 51.12943 7.50128 24239 ft 270 kts 358°
2026-04-27 17:41 51.14809 7.50400 23874 ft 270 kts 358°
2026-04-27 17:41 51.16679 7.50674 23453 ft 269 kts 359°
2026-04-27 17:41 51.18543 7.50947 23024 ft 269 kts 359°
2026-04-27 17:42 51.20407 7.51218 22593 ft 269 kts 359°
2026-04-27 17:42 51.22267 7.51490 22173 ft 268 kts 359°
2026-04-27 17:42 51.24122 7.51863 21754 ft 270 kts
2026-04-27 17:42 51.25959 7.52453 21417 ft 268 kts
2026-04-27 17:43 51.27771 7.53069 21164 ft 264 kts
2026-04-27 17:43 51.29560 7.53614 20916 ft 260 kts
2026-04-27 17:43 51.31338 7.54134 20663 ft 258 kts
2026-04-27 17:43 51.33101 7.54665 20415 ft 257 kts
2026-04-27 17:44 51.34856 7.55202 20171 ft 256 kts
2026-04-27 17:44 51.36599 7.55735 19932 ft 254 kts
2026-04-27 17:44 51.38342 7.56262 19685 ft 257 kts
2026-04-27 17:44 51.40122 7.56799 19449 ft 264 kts
2026-04-27 17:45 51.41948 7.57355 19212 ft 270 kts
2026-04-27 17:45 51.43802 7.57924 18978 ft 272 kts
2026-04-27 17:45 51.45671 7.58496 18742 ft 274 kts
2026-04-27 17:45 51.47550 7.59071 18506 ft 275 kts
2026-04-27 17:46 51.49435 7.59647 18236 ft 275 kts
2026-04-27 17:46 51.51315 7.60222 17965 ft 275 kts
2026-04-27 17:46 51.53184 7.60793 17651 ft 278 kts
2026-04-27 17:46 51.55096 7.61378 17276 ft 281 kts
2026-04-27 17:47 51.57022 7.61970 16880 ft 282 kts
2026-04-27 17:47 51.58329 7.62373 16617 ft 282 kts
2026-04-27 17:47 51.60882 7.63159 16075 ft 281 kts
2026-04-27 17:47 51.62798 7.63748 15677 ft 280 kts
2026-04-27 17:48 51.64704 7.64334 15278 ft 278 kts
2026-04-27 17:48 51.66602 7.64918 14886 ft 277 kts
2026-04-27 17:48 51.68492 7.65501 14498 ft 276 kts
2026-04-27 17:48 51.70380 7.66084 14117 ft 276 kts
2026-04-27 17:49 51.72258 7.66664 13703 ft 274 kts
2026-04-27 17:49 51.74129 7.67242 13275 ft 272 kts
2026-04-27 17:49 51.75980 7.67816 12855 ft 270 kts
2026-04-27 17:49 51.77820 7.68385 12443 ft 269 kts
2026-04-27 17:50 51.79652 7.68952 12034 ft 267 kts
2026-04-27 17:50 51.83294 7.69944 11232 ft 263 kts 360°
2026-04-27 17:50 51.85085 7.69603 10838 ft 258 kts 343°
2026-04-27 17:51 51.86706 7.68476 10465 ft 252 kts 328°
2026-04-27 17:51 51.88056 7.66717 10072 ft 247 kts 313°
2026-04-27 17:51 51.89210 7.64690 9654 ft 244 kts 312°
2026-04-27 17:51 51.90364 7.62680 9229 ft 243 kts 313°
2026-04-27 17:52 51.91517 7.60680 8811 ft 242 kts 313°
2026-04-27 17:52 51.92657 7.58697 8401 ft 238 kts 313°
2026-04-27 17:52 51.93779 7.56740 7992 ft 235 kts 313°
2026-04-27 17:52 51.94509 7.55465 7734 ft 232 kts 313°
2026-04-27 17:53 51.95962 7.52923 7199 ft 230 kts 313°
2026-04-27 17:53 51.97071 7.50980 6818 ft 240 kts 314°
2026-04-27 17:53 51.98222 7.48975 6410 ft 246 kts 314°
2026-04-27 17:53 51.99403 7.46929 5997 ft 250 kts 314°
2026-04-27 17:54 52.00591 7.44864 5590 ft 251 kts 314°
2026-04-27 17:54 52.01786 7.42779 5187 ft 252 kts 313°
2026-04-27 17:54 52.02967 7.40719 4786 ft 249 kts 314°
2026-04-27 17:54 52.04207 7.38978 4361 ft 225 kts 327°
2026-04-27 17:55 52.05587 7.38028 3946 ft 208 kts 347°
2026-04-27 17:55 52.06981 7.37900 3515 ft 195 kts
2026-04-27 17:55 52.08229 7.38559 3093 ft 185 kts 30°
2026-04-27 17:55 52.09136 7.39851 2988 ft 163 kts 56°
2026-04-27 17:56 52.09534 7.41424 2995 ft 144 kts 83°
2026-04-27 17:56 52.09409 7.42993 2999 ft 141 kts 112°
2026-04-27 17:56 52.08930 7.44454 3006 ft 150 kts 107°
2026-04-27 17:56 52.08854 7.46178 3012 ft 161 kts 79°
2026-04-27 17:57 52.09324 7.47880 3010 ft 172 kts 53°
2026-04-27 17:57 52.10259 7.49149 3004 ft 179 kts 31°
2026-04-27 17:57 52.11397 7.49996 2994 ft 181 kts 29°
2026-04-27 17:57 52.12077 7.51625 2977 ft 182 kts 80°
2026-04-27 17:58 52.11946 7.53582 2826 ft 167 kts 104°
2026-04-27 17:58 52.11612 7.55365 2498 ft 163 kts 103°
2026-04-27 17:58 52.11397 7.57074 2141 ft 144 kts 91°
2026-04-27 17:58 52.11492 7.58605 1898 ft 132 kts 77°
2026-04-27 17:59 52.11704 7.60075 1683 ft 131 kts 72°
2026-04-27 17:59 52.11982 7.61379 1479 ft 118 kts 68°
2026-04-27 17:59 52.12241 7.62608 1273 ft 108 kts 69°
2026-04-27 17:59 52.12463 7.63665 1060 ft 86 kts 70°
2026-04-27 18:00 52.12635 7.64549 821 ft 80 kts 68°
2026-04-27 18:00 52.12816 7.65375 627 ft 76 kts 68°
2026-04-27 18:00 52.12976 7.66169 410 ft 73 kts 68°
2026-04-27 18:00 52.13145 7.66963 223 ft 75 kts 69°
2026-04-27 18:01 52.13300 7.67685 163 ft 57 kts 69°
2026-04-27 18:01 52.13394 7.68154 164 ft 17 kts 71°
2026-04-27 18:01 52.13328 7.68280 164 ft 18 kts 160°
2026-04-27 18:01 52.13227 7.68336 164 ft 18 kts 161°
2026-04-27 18:02 52.13138 7.68377 164 ft 8 kts 200°
2026-04-27 18:02 52.13129 7.68325 164 ft 0 kts 270°